Regional Weather Roundup
Issued by NWS

Home | Current Version | Previous Version | Graphics & Text | Print | Product List | Glossary On
Versions: 1 2 3 4 5 6 7 8 9 10 11 12 13 14 15 16 17 18 19 20 21 22 23 24 25 26 27 28 29 30 31 32 33 34 35 36 37 38 39 40 41 42 43 44 45 46 47 48 49 50
000
ASUS43 KDTX 301401
RWRMI
MICHIGAN HOURLY REGIONAL WEATHER ROUNDUP
NATIONAL WEATHER SERVICE DETROIT/PONTIAC MI
1000 AM EDT THU OCT 30 2014

NOTE: "FAIR" INDICATES FEW OR NO CLOUDS BELOW 12,000 FEET WITH NO
SIGNIFICANT WEATHER AND/OR OBSTRUCTION TO VISIBILITY.

MIZ047>049-052>055-059>063-066>070-074>076-081>083-301500-
SOUTHEAST LOWER MICHIGAN

CITY           SKY/WX    TMP DP  RH WIND       PRES   REMARKS
ADRIAN         CLOUDY    42  37  82 NW3       30.16R
ALMA           CLOUDY    41  38  89 S3        30.13S
ANN ARBOR      SUNNY     41  36  82 W3        30.14R
BAD AXE        MOSUNNY   41  36  83 W7        30.13R
CARO           CLOUDY    40  37  88 CALM      30.13S
DETROIT CITY   MOSUNNY   45  32  60 CALM      30.15R
DETROIT        MOSUNNY   43  36  76 CALM      30.15R
FLINT          CLOUDY    41  36  82 SW3       30.14S
GROSSE ILE     SUNNY     43  37  81 CALM      30.14R
HILLSDALE      CLOUDY    42  41  98 CALM      30.13S
HOWELL         CLOUDY    39  37  94 SW5       30.14R

CITY           SKY/WX    TMP DP  RH WIND       PRES   REMARKS
JACKSON        CLOUDY    40  38  93 CALM      30.14R
LAMBERTVILLE   SUNNY     43  37  81 W3        30.16R
LANSING        CLOUDY    42  36  79 S3        30.14S
LAPEER         CLOUDY    42  34  72 CALM      30.13S
MASON          CLOUDY    40  36  87 CALM      30.14S
MT. CLEMENS    MOSUNNY   44  34  67 W7        30.11R
PONTIAC        MOSUNNY   42  34  73 CALM      30.12S
PORT HOPE        N/A     42  34  73 VRB5      30.10R
PORT HURON     SUNNY     43  36  75 NW7       30.13S
TRI CITIES     CLOUDY    40  37  89 CALM      30.14S
TROY           SUNNY     43  31  62 CALM      30.15S
SAGINAW HB     CLOUDY    39  39 100 CALM      30.13S
$$
MIZ043>046-050>051-056>058-064>065-071>073-077>080-301500-
SOUTHWEST LOWER MICHIGAN

CITY           SKY/WX    TMP DP  RH WIND       PRES   REMARKS
BATTLE CREEK   CLOUDY    44  37  76 S6        30.14R
BENTON HARBOR  CLOUDY    45  37  73 S5        30.13S
BIG RAPIDS     CLOUDY    41  41 100 CALM      30.10S
COLDWATER      CLOUDY    45  39  81 CALM      30.14R
FREMONT        CLOUDY    43  39  88 CALM      30.10S
HOLLAND        CLOUDY    47  40  76 CALM      30.13S
GRAND RAPIDS   CLOUDY    45  40  82 S3        30.12S
IONIA          CLOUDY    42  38  86 S3        30.12S
KALAMAZOO      CLOUDY    45  38  76 SW6       30.14R
LUDINGTON      CLOUDY    47  39  74 W8        30.10S
MARSHALL       CLOUDY    42  37  82 CALM      30.13S
MOUNT PLEASANT CLOUDY    40  38  91 S3        30.11S
MUSKEGON       CLOUDY    49  35  58 SW7       30.11F
SOUTH HAVEN    CLOUDY    48  38  69 CALM      30.12S
$$
MIZ016>042-301500-
NORTHERN LOWER MICHIGAN

CITY           SKY/WX    TMP DP  RH WIND       PRES   REMARKS
ALPENA         CLOUDY    36  32  85 SW6       30.10S WCI  31
BEAVER ISLAND  DRIZZLE   41  39  93 CALM      30.07S
CADILLAC       CLOUDY    39  37  91 SW6       30.07F WCI  35
CHARLEVOIX     LGT RAIN  39  37  91 S5        30.11S
FRANKFORT      CLOUDY    45  39  81 W6        30.08S
GAYLORD        CLOUDY    37  34  89 S3        30.08R
GRAYLING       CLOUDY    36  35  98 CALM      30.09F
HARBOR SPRINGS RAIN      39  35  88 CALM      30.08S
HOUGHTON LAKE  CLOUDY    39  35  86 S5        30.10S
MANISTEE       CLOUDY    43  39  87 CALM      30.09S
OSCODA         CLOUDY    37  35  92 W6        30.12R WCI  32
PELLSTON       CLOUDY    39  35  86 CALM      30.09R
ROGERS CITY    CLOUDY    37  34  87 SW6       30.10S WCI  33
TRAVERSE CITY  CLOUDY    43  37  79 S3        30.07F
$$
MIZ007>008-015-301500-
EASTERN UPPER MICHIGAN

CITY           SKY/WX    TMP DP  RH WIND       PRES   REMARKS
KINROSS        CLOUDY   N/A N/A N/A MISG        N/A
MACKINAC ISLAN CLOUDY    41  37  85 CALM      30.07S
NEWBERRY       CLOUDY    36  35  95 W9        30.05S WCI  29
S. S. MARIE    CLOUDY    37  34  89 SW3       30.06R
MUNISING         N/A     40  35  83 S5        30.03F
$$
MIZ004>006-011>014-085-301500-
CENTRAL UPPER MICHIGAN

CITY           SKY/WX    TMP DP  RH WIND       PRES   REMARKS
MANISTIQUE     CLOUDY    40  37  87 CALM      30.06S
ESCANABA       CLOUDY    41  34  75 CALM      30.05S
MENOMINEE      CLOUDY    41  34  75 W5        30.06S
SAWYER-GWINN   CLOUDY    37  34  87 S3        30.03R
$$
MIZ001>003-009>011-084-301500-
WESTERN UPPER MICHIGAN

CITY           SKY/WX    TMP DP  RH WIND       PRES   REMARKS
IRON MOUNTAIN  CLOUDY    40  33  76 W3        30.03S
HOUGHTON       LGT RAIN  38  35  89 W6        30.01S FOG     WCI  33
COPPER HARBOR    N/A     40  37  89 VRB3      30.02R
IRONWOOD       CLOUDY    37  34  87 SW5       30.02S WCI  34
$$

ABBREVIATIONS USED IN REMARKS
   TC - TEMPERATURE IN CELSIUS
  WCI - WIND CHILL INDEX
   HX - HEAT INDEX
  VSB - VISIBILITY




USA.gov is the U.S. government's official web portal to all federal, state and local government web resources and services.